Location: Calberlah
(52.4230°N, 10.6240°E)
Time: 21:33:51
(UTC+00:00)

Cosmos 1805 - Pass Details

Date: 19 May 2025
Orbit: 448 x 453 km, 82.5° (Epoch: 15 June)

Event Time Altitude Azimuth Distance (km) Brightness Sun altitude
Rises 20:44:13 0° 355° (N) 2,470 7.8 -10.6°
Reaches altitude 10° 20:46:24 10° 4° (N) 1,591 6.5 -10.8°
Maximum altitude 20:49:39 37° 73° (ENE) 721 3.8 -11.1°
Enters shadow 20:51:50 18° 133° (SE) 1,193 4.4 -11.3°
